sat.trackr.live / text

‹ back to catalog

BEIDOU-2 IGSO-7 (C16)

NORAD 43539 · 2018-057A

PAYLOAD ACTIVE UNKNOWN

§ Identity

Operator
Country
PRC
Launch date
2018-07-09
Launch site
XICLF
Launch vehicle
Mass (kg)
RCS (m²)

Purposes: comms, nav

External: N2YO · Heavens-Above · Gunter

§ Orbital elements

Epoch: 2026-05-24T23:08:31.200864Z

Period
1,436.30 min
Inclination
55.1903°
Eccentricity
0.0104267
Mean motion
1.00257887 rev/d
Perigee alt
35,350.8 km
Apogee alt
36,230.2 km
Semi-major
42,168.6 km
B*
0.0000e+0
RAAN
163.2595°
Arg perigee
237.9351°
Mean anomaly
300.0258°
Rev number
2,889

§ Raw data

BEIDOU-2 IGSO-7 (C16)1 43539U 18057A   26144.96425001 -.00000014  00000+0  00000+0 0  99932 43539  55.1903 163.2595 0104267 237.9351 300.0258  1.00257887 28893

JSON: /api/v1/satellites/43539 · /tle

For live sub-satellite position, see the globe view (requires WebGL).

§ Visibility from observer

Set your observer location to see the next 7 days of passes ≥ 10°. The values pass through the URL so the page stays shareable.

No JS? Fill the form by hand. The geolocation button needs JavaScript.